Estación Meteorológica Peña el Pijo (Robertgarden) [ 09/29/20 11:02:50 CEST ]

Fecha Hora Presion(HPa) Temp (°C) Humedad % Rocio (°C) Viento ( m/s) Direccion Lluvia 1Hora(mm) Lluvia 24H(mm) LLuvia Total(mm)
2020-Jan-26 01:09:10 1006.400 - - - - N     39.88
2020-Jan-26 02:11:26 1006.500 - - - - N     39.88
2020-Jan-26 03:09:23 1006.700 - - - - N     39.88
2020-Jan-26 04:08:56 1006.700 - - - - N     39.88
2020-Jan-26 05:09:12 1006.700 - - - - N     39.88
2020-Jan-26 06:09:23 1006.800 - - - - N     39.88
2020-Jan-26 07:09:27 1007.700 - - - - N     39.88
2020-Jan-26 08:09:27 1008.500 - - - - N     39.88
2020-Jan-26 09:09:12 1009.200 - - - - N     39.88
2020-Jan-26 10:08:54 1009.900 - - - - N     39.88
2020-Jan-26 11:09:02 1010.500 - - - - N     39.88
2020-Jan-26 12:09:05 1010.700 - - - - N     39.88
2020-Jan-26 13:09:10 1010.600 - - - - N     39.88
2020-Jan-26 14:08:57 1010.100 - - - - N     39.88
2020-Jan-26 15:08:52 1010.100 - - - - N     39.88
2020-Jan-26 16:09:07 1010.100 - - - - N     39.88
2020-Jan-26 17:09:05 1010.600 - - - - N     39.88
2020-Jan-26 18:09:36 1011.100 - - - - N     39.88
2020-Jan-26 19:09:25 1011.500 - - - - N     39.88
2020-Jan-26 20:09:35 1012.100 - - - - N     39.88
2020-Jan-26 21:09:06 1012.800 - - - - N     39.88
2020-Jan-26 22:09:06 1012.800 - - - - N     39.88
2020-Jan-26 23:09:14 1013.000 - - - - N     39.88

Temperatura Máxima:    Temperatura Mínima:
Presión Máxima:1013.000 Hpa    Presión Mínima:1006.400 Hpa


Volver